Voltar ao catálogo

STARLINK-30706

AtivoComunicaçõesVLEO
NORAD 57947·PAYLOAD·🇺🇸 United States

Lançado Sep 25, 2023 de Vandenberg Space Force Base

Loading…

Próximas Passagens (próximas 24 horas)

TLE

AtualizadoSource: CelesTrak SupGP

Época: Sep 14, 2026, 22:29 UTC

1 57947C 23148N   26257.93729167  .00013332  00000+0  39377-3 0  2576
2 57947  53.1587 221.4375 0001662  93.3142 158.9432 15.34393556    11

Acompanhe STARLINK-30706 em tempo real com AllMySat

Download on the App Store